Weather Roundup
Issued by NWS

Home | Current Version | Previous Version | Text Only | Print | Product List | Glossary On
Versions: 1 2 3 4 5 6 7 8 9 10 11 12 13 14 15 16 17 18 19 20 21 22 23 24 25 26 27 28 29 30 31 32 33 34 35 36 37 38 39 40 41 42 43 44 45 46 47 48 49 50
000
NZUS93 KARX 281410
HRRWXR

CURRENT HOURLY OBSERVATIONS ACROSS
MUCH OF THE UPPER MISSISSIPPI VALLEY
NATIONAL WEATHER SERVICE LA CROSSE WI
800 AM CST FRI NOV 28 2014


...SOUTHEAST MINNESOTA...


CITY           SKY/WX    TMP DP  RH WIND       PRES   REMARKS
ROCHESTER      PTCLDY    14   7  73 S18       29.97F WCI  -3
ROCHESTER/MAYO FAIR      15   7  72 SE8G17    29.99F WCI   4
WINONA         CLOUDY    18  12  79 SE6       30.08R WCI   9
AUSTIN         FAIR      14   9  79 S9        29.97F WCI   2
ALBERT LEA     FAIR      14   9  79 S16       29.95F WCI  -2
DODGE CENTER   PTCLDY    14   9  79 S14       29.95F WCI  -1
PRESTON        CLEAR     13   8  78 S14       30.01S WCI  -2
OWATONNA       PTCLDY    16   9  73 SE17G24   29.94F WCI   0
FARIBAULT      PTCLDY    14   7  73 SE7       29.96F WCI   4
$$

...ELSEWHERE IN MINNESOTA...


CITY           SKY/WX    TMP DP  RH WIND       PRES   REMARKS
MINNEAPOLIS    CLOUDY    13   8  81 E10       30.01F WCI   0
INTNL FALLS    MOCLDY     5  -1  76 E3        30.03S
DULUTH         LGT SNOW   9   5  84 SE7       30.01F WCI  -2
RED WING       CLOUDY    16  10  79 SE8       30.03F WCI   5
REDWOOD FALLS  FAIR      13   7  77 E9        29.91F WCI   1
MANKATO        PTCLDY    12   5  73 SE12      29.94F WCI  -2
WORTHINGTON    CLOUDY    14  12  92 SE7       29.85F WCI   4
FAIRMONT       MOCLDY    16  10  79 SE10      29.91F WCI   3
$$

...SOUTHWEST WISCONSIN...


CITY           SKY/WX    TMP DP  RH WIND       PRES   REMARKS
LA CROSSE      CLOUDY    18  10  71 S9        30.08F WCI   7
PRAIRIE DU CHI MOCLDY    18   8  65 SE9       30.10F WCI   6
BOSCOBEL       PTCLDY    19  10  68 VRB3      30.12F
LONE ROCK      PTCLDY    20   9  62 SE7       30.14F WCI  11
PLATTEVILLE    PTCLDY    16  10  77 SE14G21   30.11F WCI   2
FORT MC COY    CLOUDY    16  10  79 SE7       30.09F WCI   6
CAMP DOUGLAS   CLOUDY    14  13  95 E9        30.10F WCI   1
VIROQUA        CLOUDY    14  10  86 SE12      30.04F WCI   0
WIS DELLS      CLOUDY    15  11  82 SE9       30.11F WCI   3
$$

...ELSEWHERE IN WISCONSIN...


CITY           SKY/WX    TMP DP  RH WIND       PRES   REMARKS
MILWAUKEE      LGT SNOW  18  12  77 S8        30.23F WCI   8
MADISON        CLOUDY    17  11  77 S15       30.16F WCI   2
GREEN BAY      LGT SNOW  13   8  81 SE7       30.21F WCI   3
EAU CLAIRE     CLOUDY    12   7  80 SE7       30.07S WCI   1
BLACK RVR FLS  CLOUDY    14   9  80 E6        30.09F WCI   5
MEDFORD        FLURRIES   8   4  83 SE6       30.06F WCI  -2
WAUSAU         CLOUDY     9   5  84 SE7       30.11S FOG     WCI  -2
WIS RAPIDS     CLOUDY    11   6  81 SE9       30.14F WCI  -2
MARSHFIELD     CLOUDY    11   6  81 SE9       30.09F WCI  -2
RICE LAKE      CLOUDY    11   7  83 E9        30.05F WCI  -2
$$

...NORTHEAST IOWA...


CITY           SKY/WX    TMP DP  RH WIND       PRES   REMARKS
DECORAH        PTCLDY    16   7  67 S10G18    30.02F WCI   3
MASON CITY     PTCLDY    13   7  77 SE16      29.98F WCI  -3
CHARLES CITY   PTCLDY    16   9  73 SE15      30.02S WCI   1
OELWEIN        PTCLDY    18  10  73 SE17      30.04S WCI   2
$$

...ELSEWHERE IN IOWA...


CITY           SKY/WX    TMP DP  RH WIND       PRES   REMARKS
DES MOINES     MOCLDY    21  16  81 S14       29.96F WCI   8
IOWA CITY      PTCLDY    17  11  77 SE9       30.10F WCI   6
FORT DODGE     MOCLDY    16   9  73 E8        29.94S WCI   5
$$

...NORTHERN ILLINOIS...


CITY           SKY/WX    TMP DP  RH WIND       PRES   REMARKS
CHICAGO-OHARE  FLURRIES  20  14  77 S13       30.26F WCI   7
CHICAGO-MIDWAY FLURRIES  22  14  71 S9        30.28F WCI  12
MOLINE         PTCLDY    18  10  71 SE12      30.14F WCI   5
ROCKFORD       CLOUDY    19  12  74 S15       30.23F WCI   5
PEORIA         PTCLDY    21  11  65 SE10      30.21F WCI  10
$$

NOTE: "FAIR" INDICATES FEW OR NO CLOUDS BELOW 12,000 FEET WITH NO
SIGNIFICANT WEATHER AND/OR OBSTRUCTIONS TO VISIBILITY. WIND
SPEEDS ARE IN MILES-PER-HOUR.



USA.gov is the U.S. government's official web portal to all federal, state and local government web resources and services.